User: anonymous
Location: Unspecified
(0.0000°N, 0.0000°E)
Time: 17:54:56
(UTC+00:00)
Language:

Vela 2A - Orbit

View from above orbital plane
View from above orbital plane
View from above satellite
View from above satellite

Ground track
Ground track

The orbit data is extracted from the following two-line orbital elements,

1 00836U 64040A   14200.65042934 -.00000194  00000-0  00000+0 0  5047
2 00836 082.4341 326.9363 3350380 266.8145 000.0931 00.23915991 43680
Epoch (UTC): 19 July 2014 15:36:37
Eccentricity: 0.3350380
inclination: 82.4341°
perigee height: 66523 km
apogee height: 139985 km
right ascension of ascending node: 326.9363°
argument of perigee: 266.8145°
revolutions per day: 0.23915991
mean anomaly at epoch: 0.0931°
orbit number at epoch: 4368

The dashed part of the orbit path shows where the satellite is in the earth's shadow,  

DLR